Notices

What's New in latest Release from April 7th, 2021:

- Updated Glossary, including Speed of Maximum Gust, and Total Hourly Precipitation

- Updated national and regional climate services offices contacts and prices information

- Addition of station inventory lists for 1981-2010, 1971-2000, and 1961-1990 Normals.

If you haven't already, please take our survey and provide feedback about our website: https://eccc.sondage-survey.ca/f/LanguageSelection.aspx?s=442ca660-fcf1-47c0-95a9-59707d6fd709

Hourly Data Report for January 19, 2021

EDMUNDSTON
NEW BRUNSWICK
Current Station Operator: ECCC - MSC

47°25'00.000" N
68°19'28.040" W
154.20 m
8101303
71590
ERM

Download Data

Hourly Data (January 2021)
Hourly Data Report for January 19, 2021
TIME
LST
Temp Definition
°C
Dew Point Definition
°C
Rel Hum Definition
%
Precip. Amount Definition
mm

Wind Dir Definition
10's deg

Wind Spd Definition
km/h
Visibility Definition
km
Stn Press Definition
kPa
Hmdx Definition


Wind Chill Definition


Weather Definition


00:00 -10.4 -14.0 75 0.0 30 14   98.43   -17 LegendNANA
01:00 -10.6 -14.3 74 0.0 29 17   98.50   -18 LegendNANA
02:00 -11.1 -14.9 74 0.0 29 14   98.53   -18 LegendNANA
03:00 -11.9 -15.4 75 0.0 31 10   98.61   -18 LegendNANA
04:00 -13.1 -16.5 76 0.0 30 11   98.69   -19 LegendNANA
05:00 -12.9 -16.7 73 0.0 30 16   98.82   -21 LegendNANA
06:00 -14.0 -17.8 73 0.0 31 9   98.90   -20 LegendNANA
07:00 -14.8 -18.7 72 0.0 31 10   99.02   -21 LegendNANA
08:00 -15.5 -19.1 74 0.2 30 11   99.09   -22 LegendNANA
09:00 -15.7 -19.4 73 0.0 30 7   99.16   -21 LegendNANA
10:00 -14.1 -19.4 64 0.0 31 9   99.25   -20 LegendNANA
11:00 -13.4 -19.6 59 0.0 30 15   99.28   -21 LegendNANA
12:00 -12.7 -20.0 54 0.0 33 18   99.26   -21 LegendNANA
13:00 -11.5 -18.5 56 0.0 28 15   99.20   -19 LegendNANA
14:00 -10.8 -19.3 50 0.0 29 16   99.17   -18 LegendNANA
15:00 -10.5 -18.8 50 0.0 30 14   99.20   -17 LegendNANA
16:00 -10.1 -18.0 53 0.0 30 13   99.25   -16 LegendNANA
17:00 -10.8 -16.9 61 0.0 31 7   99.30   -15 LegendNANA
18:00 -14.2 -17.6 75 0.0 25 3   99.36   -16 LegendNANA
19:00 -17.4 -19.0 87 0.0   0   99.38     LegendNANA
20:00 -18.9 -20.7 86 0.0 30 2   99.43   -21 LegendNANA
21:00 -20.1 -22.2 83 0.0 27 3   99.43   -23 LegendNANA
22:00 -20.2 -21.9 86 0.0 30 3   99.41   -23 LegendNANA
23:00 -22.2 -24.5 81 0.0 33 3   99.40   -25 LegendNANA

Notes on Data Quality.

Legend

  • E = Estimated
  • M = Missing
  • NA = Not Available*
  • [empty] = Indicates an unobserved value
Date modified: